QPF
0.00 0.00 0.00 0.00 0.00 0.00 0.00 0.00 0.00 0.00 0.00 0.00 0.00 0.00 0.00 0.00 0.00 0.00 0.00 0.00 0.00 0.00 0.00 0.00 0.00 0.01 0.07 0.20 0.29 0.10 0.05 0.03 0.03 0.03 0.01 0.00 0.00 0.00 0.00 0.00 0.00 0.00 0.01 0.05 0.02 0.00 0.00 0.00 0.00
0.00 0.00 0.00 0.00 0.00 0.00 0.00 0.00 0.00 0.00 0.00 0.00 0.00 0.00 0.00 0.00 0.00 0.00 0.00 0.00 0.00 0.00 0.03 0.02 0.00 0.01 0.06 0.19 0.27 0.12 0.11 0.05 0.03 0.05 0.01 0.00 0.00 0.00 0.00 0.00 0.00 0.00 0.01 0.03 0.00 0.00 0.00 0.00 0.00
0.00 0.00 0.00 0.00 0.00 0.00 0.00 0.00 0.00 0.00 0.00 0.00 0.00 0.00 0.00 0.00 0.00 0.00 0.00 0.00 0.00 0.02 0.12 0.12 0.01 0.00 0.03 0.17 0.20 0.14 0.08 0.03 0.07 0.01 0.00 0.00 0.00 0.00 0.00 0.00 0.01 0.01 0.01 0.00 0.00 0.00 0.00 0.00 0.00
0.00 0.00 0.00 0.00 0.00 0.00 0.00 0.00 0.00 0.00 0.00 0.00 0.00 0.00 0.00 0.00 0.00 0.00 0.00 0.00 0.00 0.00 0.07 0.05 0.02 0.03 0.01 0.15 0.25 0.17 0.10 0.05 0.02 0.00 0.00 0.00 0.00 0.00 0.00 0.02 0.05 0.01 0.00 0.00 0.00 0.00 0.00 0.00 0.00
0.00 0.00 0.00 0.00 0.00 0.00 0.00 0.00 0.00 0.00 0.00 0.00 0.00 0.00 0.00 0.00 0.00 0.00 0.00 0.00 0.00 0.00 0.01 0.01 0.05 0.04 0.02 0.11 0.28 0.22 0.07 0.03 0.00 0.00 0.00 0.00 0.00 0.02 0.11 0.10 0.01 0.00 0.00 0.00 0.00 0.00 0.00 0.00 0.00
0.00 0.00 0.00 0.00 0.00 0.00 0.00 0.00 0.00 0.00 0.00 0.00 0.00 0.00 0.00 0.00 0.00 0.00 0.00 0.00 0.00 0.00 0.01 0.02 0.12 0.22 0.07 0.15 0.38 0.22 0.05 0.03 0.01 0.02 0.00 0.00 0.02 0.10 0.15 0.05 0.01 0.02 0.01 0.00 0.00 0.00 0.00 0.00 0.00
0.00 0.00 0.00 0.00 0.00 0.00 0.00 0.00 0.00 0.00 0.00 0.00 0.00 0.00 0.00 0.00 0.00 0.00 0.00 0.00 0.00 0.00 0.00 0.03 0.08 0.16 0.32 0.36 0.48 0.23 0.14 0.04 0.03 0.05 0.03 0.05 0.03 0.03 0.04 0.04 0.04 0.06 0.01 0.00 0.00 0.00 0.00 0.00 0.00
0.00 0.00 0.00 0.00 0.00 0.00 0.00 0.00 0.00 0.00 0.00 0.00 0.00 0.00 0.00 0.00 0.00 0.00 0.00 0.00 0.00 0.00 0.00 0.00 0.04 0.10 0.25 0.29 0.33 0.16 0.03 0.00 0.01 0.07 0.06 0.14 0.11 0.06 0.02 0.02 0.03 0.00 0.00 0.00 0.00 0.00 0.00 0.00 0.00
0.00 0.00 0.00 0.00 0.00 0.00 0.00 0.00 0.00 0.00 0.00 0.00 0.00 0.00 0.00 0.00 0.00 0.00 0.00 0.00 0.00 0.00 0.00 0.00 0.02 0.08 0.08 0.08 0.05 0.02 0.00 0.01 0.01 0.04 0.09 0.24 0.19 0.11 0.03 0.01 0.04 0.01 0.00 0.00 0.00 0.00 0.00 0.00 0.00
0.00 0.00 0.00 0.00 0.00 0.00 0.00 0.00 0.00 0.00 0.00 0.00 0.00 0.00 0.00 0.00 0.00 0.00 0.00 0.00 0.00 0.00 0.00 0.00 0.03 0.08 0.04 0.04 0.06 0.06 0.04 0.05 0.02 0.03 0.08 0.19 0.14 0.09 0.03 0.00 0.01 0.00 0.00 0.00 0.00 0.00 0.00 0.00 0.00
0.00 0.00 0.00 0.00 0.00 0.00 0.00 0.00 0.00 0.00 0.00 0.00 0.00 0.00 0.00 0.00 0.00 0.00 0.00 0.00 0.00 0.00 0.00 0.00 0.02 0.10 0.05 0.03 0.05 0.06 0.06 0.09 0.01 0.02 0.07 0.09 0.06 0.06 0.02 0.00 0.00 0.00 0.00 0.00 0.00 0.00 0.00 0.00 0.00
0.00 0.00 0.00 0.00 0.00 0.00 0.00 0.00 0.00 0.00 0.00 0.00 0.00 0.00 0.00 0.00 0.00 0.00 0.00 0.00 0.00 0.00 0.00 0.00 0.00 0.05 0.09 0.05 0.11 0.06 0.06 0.03 0.00 0.00 0.01 0.01 0.01 0.00 0.00 0.00 0.00 0.00 0.00 0.00 0.00 0.00 0.00 0.00 0.00
0.00 0.00 0.00 0.00 0.00 0.00 0.00 0.00 0.00 0.00 0.00 0.00 0.00 0.00 0.00 0.00 0.00 0.00 0.00 0.00 0.00 0.00 0.00 0.00 0.00 0.00 0.03 0.05 0.10 0.07 0.02 0.02 0.01 0.00 0.00 0.00 0.00 0.00 0.00 0.00 0.00 0.00 0.00 0.00 0.00 0.00 0.00 0.00 0.00
0.00 0.00 0.00 0.00 0.00 0.00 0.00 0.00 0.00 0.00 0.00 0.00 0.00 0.00 0.00 0.00 0.00 0.00 0.00 0.00 0.00 0.00 0.00 0.00 0.00 0.00 0.01 0.02 0.04 0.02 0.00 0.00 0.01 0.00 0.00 0.00 0.00 0.01 0.00 0.00 0.00 0.00 0.00 0.00 0.00 0.00 0.00 0.00 0.00
0.00 0.00 0.00 0.00 0.00 0.00 0.00 0.00 0.00 0.00 0.00 0.00 0.00 0.00 0.00 0.00 0.00 0.00 0.00 0.00 0.00 0.00 0.00 0.00 0.00 0.00 0.00 0.00 0.00 0.00 0.00 0.00 0.00 0.00 0.00 0.00 0.00 0.00 0.00 0.00 0.00 0.00 0.00 0.00 0.00 0.00 0.01 0.00 0.00
0.00 0.00 0.00 0.00 0.00 0.00 0.00 0.00 0.00 0.00 0.00 0.00 0.00 0.00 0.00 0.00 0.00 0.00 0.00 0.00 0.00 0.00 0.00 0.00 0.00 0.00 0.00 0.00 0.00 0.00 0.00 0.00 0.00 0.00 0.00 0.00 0.00 0.00 0.00 0.00 0.00 0.00 0.00 0.00 0.00 0.03 0.04 0.00 0.00
0.00 0.00 0.00 0.00 0.00 0.00 0.00 0.00 0.00 0.00 0.00 0.00 0.00 0.00 0.00 0.00 0.00 0.00 0.00 0.00 0.00 0.00 0.00 0.00 0.00 0.00 0.00 0.00 0.00 0.00 0.00 0.00 0.00 0.00 0.00 0.00 0.00 0.00 0.00 0.00 0.00 0.00 0.01 0.06 0.04 0.07 0.04 0.00 0.00
0.00 0.00 0.00 0.00 0.00 0.00 0.00 0.00 0.00 0.00 0.00 0.00 0.00 0.00 0.00 0.00 0.00 0.00 0.00 0.00 0.00 0.00 0.00 0.00 0.00 0.00 0.00 0.00 0.00 0.00 0.00 0.00 0.00 0.00 0.00 0.00 0.00 0.00 0.00 0.00 0.00 0.00 0.02 0.03 0.04 0.05 0.12 0.04 0.01
0.00 0.00 0.00 0.00 0.00 0.00 0.00 0.00 0.00 0.00 0.00 0.00 0.00 0.00 0.00 0.00 0.00 0.00 0.00 0.00 0.00 0.00 0.00 0.00 0.00 0.00 0.00 0.00 0.00 0.00 0.00 0.00 0.00 0.00 0.00 0.00 0.00 0.00 0.00 0.00 0.00 0.00 0.04 0.03 0.03 0.02 0.02 0.01 0.00
0.00 0.00 0.00 0.00 0.00 0.00 0.00 0.00 0.00 0.00 0.00 0.00 0.00 0.00 0.00 0.00 0.00 0.00 0.00 0.00 0.00 0.00 0.00 0.00 0.00 0.00 0.00 0.02 0.02 0.00 0.01 0.01 0.00 0.00 0.00 0.00 0.04 0.03 0.00 0.11 0.06 0.09 0.02 0.02 0.07 0.06 0.02 0.00 0.00
0.00 0.00 0.00 0.00 0.00 0.00 0.00 0.00 0.00 0.00 0.00 0.00 0.00 0.00 0.00 0.00 0.00 0.00 0.00 0.00 0.00 0.00 0.00 0.00 0.00 0.00 0.00 0.00 0.00 0.00 0.00 0.03 0.09 0.04 0.00 0.00 0.03 0.02 0.01 0.13 0.06 0.08 0.00 0.04 0.05 0.04 0.01 0.00 0.00
0.00 0.00 0.00 0.00 0.00 0.00 0.00 0.00 0.00 0.00 0.00 0.00 0.00 0.00 0.00 0.00 0.00 0.00 0.00 0.00 0.00 0.00 0.00 0.00 0.00 0.00 0.00 0.00 0.00 0.00 0.02 0.06 0.05 0.02 0.00 0.00 0.00 0.00 0.00 0.00 0.02 0.03 0.00 0.01 0.04 0.01 0.01 0.01 0.00
0.00 0.00 0.00 0.00 0.00 0.00 0.00 0.00 0.00 0.00 0.00 0.00 0.00 0.00 0.00 0.00 0.00 0.00 0.00 0.00 0.00 0.00 0.00 0.00 0.00 0.00 0.00 0.00 0.00 0.00 0.00 0.00 0.00 0.00 0.00 0.00 0.00 0.00 0.00 0.00 0.01 0.02 0.01 0.08 0.12 0.05 0.03 0.03 0.02
0.00 0.00 0.00 0.00 0.00 0.00 0.00 0.00 0.00 0.00 0.00 0.00 0.00 0.00 0.00 0.00 0.00 0.00 0.00 0.00 0.00 0.00 0.00 0.00 0.00 0.00 0.00 0.00 0.00 0.00 0.00 0.00 0.01 0.02 0.03 0.00 0.00 0.00 0.07 0.03 0.08 0.11 0.08 0.05 0.07 0.07 0.05 0.08 0.07
0.00 0.00 0.00 0.00 0.00 0.00 0.00 0.00 0.00 0.00 0.00 0.00 0.00 0.00 0.00 0.00 0.00 0.00 0.00 0.00 0.00 0.00 0.00 0.00 0.00 0.00 0.00 0.00 0.00 0.00 0.00 0.00 0.00 0.07 0.03 0.05 0.04 0.04 0.05 0.09 0.07 0.09 0.08 0.08 0.08 0.09 0.12 0.09 0.10
0.00 0.00 0.00 0.00 0.00 0.00 0.00 0.00 0.00 0.00 0.00 0.00 0.00 0.00 0.00 0.00 0.00 0.00 0.00 0.00 0.00 0.00 0.00 0.00 0.00 0.00 0.00 0.00 0.00 0.00 0.00 0.00 0.00 0.00 0.00 0.00 0.00 0.01 0.01 0.02 0.06 0.06 0.08 0.15 0.11 0.15 0.12 0.07 0.05
0.00 0.00 0.00 0.00 0.00 0.00 0.00 0.00 0.00 0.00 0.00 0.00 0.00 0.00 0.00 0.00 0.00 0.00 0.00 0.00 0.00 0.00 0.00 0.00 0.00 0.00 0.00 0.00 0.00 0.00 0.00 0.00 0.00 0.00 0.00 0.00 0.00 0.00 0.00 0.01 0.07 0.13 0.09 0.09 0.09 0.04 0.01 0.00 0.00
0.00 0.00 0.00 0.00 0.00 0.00 0.00 0.00 0.00 0.00 0.00 0.00 0.00 0.00 0.00 0.00 0.00 0.00 0.00 0.00 0.00 0.00 0.00 0.00 0.00 0.00 0.00 0.00 0.00 0.00 0.00 0.00 0.00 0.00 0.00 0.00 0.00 0.00 0.00 0.00 0.04 0.13 0.05 0.01 0.00 0.00 0.00 0.00 0.00
0.00 0.00 0.00 0.00 0.00 0.00 0.00 0.00 0.00 0.00 0.00 0.00 0.00 0.00 0.00 0.00 0.00 0.00 0.00 0.00 0.00 0.00 0.00 0.00 0.00 0.00 0.00 0.00 0.00 0.00 0.00 0.00 0.00 0.00 0.00 0.00 0.00 0.00 0.00 0.00 0.00 0.01 0.00 0.00 0.00 0.00 0.00 0.00 0.00
0.00 0.00 0.00 0.00 0.00 0.00 0.00 0.00 0.00 0.00 0.00 0.00 0.00 0.00 0.00 0.00 0.00 0.00 0.00 0.00 0.00 0.00 0.00 0.00 0.00 0.00 0.00 0.00 0.00 0.00 0.00 0.00 0.00 0.00 0.00 0.00 0.01 0.01 0.00 0.00 0.00 0.01 0.00 0.00 0.00 0.01 0.01 0.00 0.00
MSLP
1008.43 1007.99 1007.78 1007.10 1005.51 1003.87 1004.20 1005.12 1005.10 1005.54 1005.82 1006.40 1006.99 1007.13 1008.17 1008.69 1008.84 1010.29 1011.41 1011.78 1011.84 1011.44 1011.68 1012.23 1013.12 1013.29 1013.55 1013.73 1013.89 1014.16 1014.30 1014.66 1014.94 1015.09 1015.09 1015.31 1015.67 1015.86 1016.07 1016.31 1016.55 1016.70 1016.76 1016.97 1017.13 1017.39 1017.63 1017.83 1018.03
1007.59 1008.23 1007.32 1005.10 1003.72 1003.57 1005.14 1005.42 1005.50 1006.03 1006.62 1007.10 1007.53 1007.80 1008.18 1009.54 1010.27 1011.16 1011.34 1012.17 1011.85 1011.66 1011.86 1011.74 1013.12 1013.34 1013.65 1014.00 1014.08 1014.36 1014.53 1014.84 1015.20 1015.44 1015.55 1015.64 1015.93 1016.17 1016.43 1016.66 1016.79 1016.92 1017.09 1017.26 1017.38 1017.67 1017.89 1018.11 1018.26
1007.87 1007.76 1005.44 1003.87 1003.70 1004.25 1005.44 1006.11 1006.48 1006.81 1007.10 1007.12 1007.87 1008.37 1008.81 1010.04 1010.88 1011.43 1012.40 1012.52 1011.75 1011.78 1012.23 1012.31 1013.04 1013.35 1013.72 1014.10 1014.33 1014.63 1014.85 1015.16 1015.53 1015.68 1015.86 1015.98 1016.21 1016.41 1016.66 1016.80 1017.03 1017.22 1017.35 1017.51 1017.74 1017.96 1018.16 1018.34 1018.44
1007.32 1006.47 1004.94 1003.78 1004.60 1005.49 1005.83 1006.43 1006.73 1006.99 1007.38 1007.68 1007.92 1008.80 1010.34 1011.24 1010.94 1011.69 1012.41 1012.54 1012.22 1011.99 1012.02 1012.32 1012.88 1013.35 1013.76 1014.15 1014.55 1014.81 1015.08 1015.53 1015.72 1015.94 1016.17 1016.34 1016.53 1016.71 1016.87 1017.08 1017.34 1017.50 1017.71 1017.84 1018.06 1018.32 1018.48 1018.61 1018.64
1006.51 1004.82 1004.01 1004.35 1005.20 1005.88 1006.32 1006.84 1006.93 1007.17 1007.64 1007.81 1008.05 1009.16 1010.58 1011.86 1011.82 1012.07 1012.21 1012.17 1012.24 1012.33 1011.97 1012.14 1013.19 1013.52 1013.93 1014.26 1014.53 1015.03 1015.42 1015.85 1016.11 1016.29 1016.52 1016.70 1016.83 1016.93 1017.09 1017.35 1017.50 1017.75 1017.97 1018.11 1018.36 1018.58 1018.74 1018.79 1018.78
1005.09 1003.73 1003.59 1004.38 1005.50 1006.25 1006.70 1006.97 1006.99 1007.34 1007.85 1008.31 1008.70 1009.64 1011.07 1012.01 1011.98 1012.20 1012.20 1012.28 1012.26 1012.33 1012.53 1012.78 1013.71 1013.88 1014.25 1014.66 1014.96 1015.31 1015.72 1016.27 1016.51 1016.70 1016.78 1016.97 1017.36 1017.62 1017.58 1017.51 1017.70 1017.93 1018.14 1018.40 1018.66 1018.85 1018.94 1018.94 1018.83
1003.77 1003.46 1003.99 1004.72 1005.62 1006.28 1006.96 1007.22 1007.18 1007.53 1007.88 1008.32 1008.88 1009.44 1011.13 1011.64 1012.16 1012.36 1012.41 1012.41 1012.48 1012.47 1013.06 1013.40 1013.63 1014.10 1014.47 1014.98 1015.36 1015.55 1016.31 1016.85 1016.88 1017.10 1017.20 1017.38 1017.87 1017.90 1017.84 1017.78 1018.02 1018.20 1018.40 1018.70 1018.87 1019.04 1019.10 1019.00 1018.91
1004.08 1003.72 1004.11 1004.57 1005.01 1006.38 1007.13 1007.46 1007.66 1007.57 1008.33 1008.84 1008.88 1009.23 1010.43 1011.57 1012.28 1012.53 1012.41 1012.72 1013.07 1013.25 1012.81 1013.14 1013.70 1014.16 1015.15 1015.41 1015.87 1015.91 1016.80 1017.40 1017.50 1017.53 1017.51 1017.68 1018.05 1017.81 1018.09 1018.11 1018.25 1018.48 1018.67 1018.89 1019.09 1019.20 1019.20 1019.10 1018.98
1004.28 1003.23 1003.67 1004.38 1004.71 1006.34 1007.08 1007.53 1008.06 1008.29 1008.40 1008.84 1009.17 1009.40 1010.54 1011.82 1012.19 1012.15 1012.34 1012.62 1013.06 1013.35 1013.33 1013.84 1014.33 1015.39 1015.88 1016.48 1016.98 1016.37 1017.00 1017.76 1017.87 1017.74 1017.84 1017.95 1018.23 1018.41 1017.83 1018.23 1018.63 1018.76 1018.93 1019.07 1019.24 1019.32 1019.21 1018.95 1018.70
1003.12 1003.09 1003.99 1004.63 1005.24 1006.00 1006.89 1007.34 1008.08 1008.23 1008.59 1009.27 1009.92 1010.70 1011.42 1011.92 1012.07 1011.86 1011.98 1012.32 1012.81 1013.39 1013.84 1014.47 1015.10 1015.46 1016.04 1016.93 1017.43 1018.02 1018.19 1018.53 1018.58 1018.30 1018.34 1018.58 1018.41 1018.27 1017.66 1018.56 1018.78 1018.96 1019.07 1019.11 1019.22 1019.27 1019.03 1018.66 1017.44
1003.58 1003.47 1004.33 1005.02 1005.28 1005.96 1006.82 1007.39 1007.92 1008.03 1008.26 1008.94 1009.69 1010.50 1011.14 1011.53 1011.83 1012.02 1012.13 1012.14 1012.85 1013.51 1014.08 1014.59 1015.65 1015.88 1016.62 1017.37 1017.83 1018.33 1018.80 1018.85 1018.75 1019.00 1018.83 1018.80 1018.73 1018.06 1017.17 1017.82 1017.92 1018.18 1018.76 1017.87 1018.43 1018.42 1018.00 1018.12 1017.82
1003.66 1004.19 1004.47 1005.05 1005.87 1006.08 1006.54 1007.33 1007.79 1007.83 1008.39 1009.08 1009.83 1010.45 1010.99 1011.26 1011.47 1011.79 1012.07 1012.62 1013.08 1013.74 1014.31 1014.83 1015.13 1016.30 1017.01 1017.61 1018.03 1018.45 1018.79 1019.03 1019.37 1019.30 1019.19 1018.85 1018.72 1017.80 1017.47 1017.37 1017.92 1018.01 1017.86 1018.21 1018.33 1018.00 1018.15 1018.02 1017.83
1003.61 1004.37 1004.89 1005.39 1005.91 1006.23 1006.91 1007.21 1007.85 1008.45 1008.90 1009.52 1010.05 1010.57 1010.79 1010.97 1011.50 1011.97 1012.26 1012.82 1013.11 1013.51 1014.17 1014.97 1015.57 1016.24 1016.92 1017.40 1018.30 1018.71 1018.48 1019.26 1019.67 1019.48 1019.07 1018.66 1018.54 1018.13 1017.91 1018.09 1017.73 1017.86 1017.85 1017.90 1018.03 1018.02 1017.78 1017.84 1017.45
1004.12 1004.62 1005.34 1005.84 1006.19 1006.68 1006.90 1007.51 1007.73 1008.80 1009.11 1009.68 1010.22 1010.36 1010.56 1010.87 1011.28 1011.94 1012.32 1012.55 1013.02 1013.49 1014.16 1015.14 1015.74 1016.14 1016.50 1017.38 1017.80 1017.77 1018.08 1018.95 1019.65 1019.51 1018.85 1019.12 1018.70 1018.44 1017.73 1018.01 1017.60 1017.65 1017.62 1017.68 1017.81 1017.73 1017.72 1017.50 1017.18
1004.57 1004.96 1005.62 1006.07 1006.50 1006.84 1007.08 1007.45 1007.54 1008.72 1009.14 1009.61 1009.96 1010.28 1010.56 1010.85 1011.35 1011.66 1012.02 1012.42 1012.90 1013.40 1014.23 1014.93 1015.52 1016.11 1016.55 1016.97 1017.54 1017.59 1018.17 1018.76 1019.22 1019.10 1019.21 1019.34 1019.02 1018.52 1018.41 1017.73 1017.48 1017.36 1017.58 1018.05 1017.72 1017.55 1017.17 1017.22 1016.68
1004.29 1004.63 1005.02 1006.28 1006.54 1007.18 1007.06 1007.14 1008.10 1008.65 1008.87 1009.24 1009.67 1010.19 1010.58 1010.87 1011.23 1011.57 1011.99 1012.27 1012.84 1013.36 1014.27 1014.81 1015.09 1015.73 1016.20 1016.63 1017.31 1017.91 1018.17 1019.21 1019.15 1018.69 1019.17 1018.89 1018.62 1018.70 1018.15 1017.76 1017.21 1017.38 1017.55 1017.25 1017.15 1017.08 1017.34 1016.80 1016.44
1003.99 1003.75 1004.60 1005.93 1006.43 1006.81 1006.57 1006.95 1007.95 1008.47 1008.63 1008.87 1009.24 1009.74 1010.06 1010.49 1010.90 1011.26 1011.68 1012.22 1012.55 1013.41 1014.22 1014.72 1015.25 1015.63 1016.20 1016.79 1016.77 1017.15 1018.33 1019.03 1019.10 1018.65 1018.35 1017.87 1018.04 1017.87 1017.94 1017.47 1017.02 1017.48 1017.19 1017.29 1017.29 1017.20 1017.32 1016.63 1016.11
1002.80 1003.67 1004.58 1004.95 1006.14 1006.45 1006.20 1006.66 1007.45 1008.07 1008.16 1008.38 1008.76 1009.07 1009.49 1009.59 1010.10 1010.56 1011.10 1011.78 1012.42 1013.15 1014.04 1014.62 1015.10 1015.72 1016.21 1016.62 1016.87 1016.86 1017.27 1017.85 1017.81 1017.62 1017.18 1017.30 1017.34 1017.47 1017.54 1017.11 1017.25 1017.27 1016.91 1017.25 1017.20 1017.26 1017.05 1016.91 1016.40
1003.26 1003.40 1003.89 1004.87 1005.69 1005.86 1005.99 1006.24 1006.93 1007.41 1007.72 1007.93 1008.20 1008.46 1008.83 1009.09 1009.41 1009.92 1010.65 1011.37 1012.16 1012.83 1013.58 1014.37 1014.86 1015.58 1015.97 1016.21 1016.34 1017.14 1017.35 1017.55 1017.73 1017.40 1017.23 1017.28 1017.22 1017.21 1017.23 1017.00 1016.83 1017.14 1017.16 1017.41 1017.41 1017.10 1017.02 1016.87 1016.21
1002.84 1003.16 1003.75 1004.81 1005.51 1005.60 1005.79 1005.76 1006.42 1006.93 1007.05 1007.20 1007.52 1007.88 1008.25 1008.53 1008.80 1009.69 1010.26 1010.89 1011.73 1012.50 1013.15 1014.05 1014.62 1015.47 1015.62 1015.98 1016.30 1016.40 1016.69 1016.80 1016.72 1016.58 1016.80 1016.85 1016.92 1016.93 1017.03 1017.16 1017.29 1017.07 1016.93 1017.24 1017.13 1016.94 1016.56 1016.15 1016.36
1002.40 1002.45 1003.52 1003.99 1005.34 1005.86 1005.50 1005.61 1005.99 1006.39 1006.70 1006.83 1006.99 1007.17 1007.25 1007.54 1008.28 1009.02 1009.81 1010.37 1011.45 1012.14 1012.80 1013.65 1014.36 1015.03 1015.53 1015.51 1015.93 1016.26 1016.44 1016.39 1016.39 1016.39 1016.22 1016.04 1016.65 1016.65 1016.54 1016.80 1016.68 1016.70 1016.81 1016.33 1016.93 1016.98 1016.69 1015.81 1015.55
1001.43 1002.73 1003.33 1004.23 1004.60 1004.46 1004.72 1003.74 1005.16 1005.28 1005.72 1006.07 1006.06 1006.19 1006.37 1006.83 1007.79 1008.35 1009.17 1009.88 1010.52 1011.49 1012.26 1013.10 1014.04 1014.57 1015.06 1015.48 1015.47 1015.76 1015.79 1015.76 1015.96 1016.02 1015.73 1015.80 1015.84 1015.89 1015.88 1016.00 1016.25 1016.19 1016.18 1016.08 1016.33 1016.17 1016.18 1016.16 1015.26
1001.59 1002.67 1003.16 1003.92 1003.89 1004.00 1004.15 1002.84 1003.39 1004.48 1004.61 1004.95 1005.27 1005.28 1005.75 1006.21 1006.92 1007.70 1008.37 1009.22 1009.87 1010.97 1011.72 1012.50 1013.62 1014.29 1014.59 1015.15 1015.25 1015.38 1015.62 1015.35 1015.52 1015.54 1015.74 1015.62 1015.51 1015.54 1015.49 1015.66 1015.59 1015.91 1015.86 1015.77 1016.27 1016.17 1016.24 1016.06 1015.46
1002.36 1002.58 1003.07 1003.43 1003.17 1002.31 1002.55 1002.50 1002.27 1003.24 1003.52 1003.91 1004.26 1004.74 1005.17 1005.55 1006.31 1007.11 1007.90 1008.85 1009.70 1010.60 1011.40 1012.07 1013.07 1013.87 1014.41 1014.84 1015.15 1015.32 1015.32 1015.41 1015.13 1015.17 1015.07 1014.76 1014.60 1014.58 1014.96 1015.25 1015.47 1015.65 1015.67 1015.61 1015.81 1015.66 1015.82 1015.90 1015.88
1002.15 1001.76 1001.52 1001.74 1001.93 1000.97 1002.40 1002.57 1001.37 1001.98 1002.83 1003.11 1003.58 1004.06 1004.43 1005.07 1005.83 1006.64 1007.53 1008.43 1009.36 1010.29 1010.99 1011.61 1012.50 1013.18 1013.80 1014.25 1014.54 1014.99 1015.31 1015.49 1015.36 1015.37 1015.13 1014.80 1014.73 1014.70 1014.74 1014.95 1015.13 1015.09 1015.06 1015.16 1015.29 1015.28 1015.49 1015.39 1015.67
1001.30 1000.36 1000.39 1000.12 1000.24 1000.68 1002.57 1001.38 1001.27 1001.68 1002.32 1002.78 1003.08 1003.43 1004.03 1004.50 1004.93 1005.79 1006.86 1007.97 1008.97 1009.79 1010.71 1011.24 1011.83 1012.69 1013.18 1013.64 1014.09 1014.53 1014.88 1014.89 1014.75 1014.75 1014.78 1014.60 1014.41 1014.35 1014.54 1014.83 1014.72 1014.64 1014.49 1014.77 1014.80 1015.02 1014.96 1015.19 1015.33
1000.87 1000.96 1000.43 999.98 1000.71 999.99 1000.77 1001.18 1001.47 1001.91 1002.13 1002.49 1002.75 1003.36 1003.67 1004.18 1004.83 1005.62 1006.59 1007.54 1008.43 1009.29 1010.26 1010.96 1011.58 1012.18 1012.61 1012.99 1013.69 1014.14 1014.41 1014.53 1014.27 1014.48 1014.59 1014.32 1014.39 1014.31 1014.34 1014.40 1014.58 1014.63 1014.28 1014.46 1014.84 1014.59 1014.56 1014.69 1014.64
1000.71 1000.06 1000.20 999.75 999.43 998.97 999.97 1000.07 1000.05 1001.45 1001.78 1002.30 1002.56 1002.95 1003.34 1004.03 1004.93 1005.59 1006.28 1007.23 1008.13 1008.90 1009.76 1010.60 1011.17 1011.65 1011.98 1012.29 1012.74 1013.31 1013.70 1014.16 1014.30 1014.38 1014.49 1014.51 1014.42 1014.43 1014.53 1014.46 1014.28 1014.46 1014.48 1014.64 1014.81 1014.34 1014.34 1014.87 1014.58
1000.40 999.92 999.59 998.98 999.02 998.18 998.51 998.89 999.98 1000.78 1001.38 1001.76 1002.25 1002.48 1003.21 1004.08 1005.04 1005.88 1006.67 1007.46 1008.20 1008.97 1009.60 1010.45 1010.98 1011.32 1011.66 1011.98 1012.30 1012.72 1013.04 1013.45 1013.92 1014.04 1014.26 1014.42 1014.55 1014.71 1014.76 1014.80 1014.86 1014.92 1014.90 1014.87 1014.93 1014.95 1014.81 1014.73 1014.67
998.78 998.49 998.57 998.18 998.52 998.36 997.63 998.82 999.76 1000.28 1000.90 1001.46 1001.81 1002.64 1003.86 1004.76 1005.61 1006.44 1007.28 1007.94 1008.57 1009.13 1009.76 1010.38 1010.80 1011.08 1011.47 1012.13 1012.76 1012.95 1013.28 1013.65 1013.60 1014.58 1015.07 1015.32 1015.30 1015.33 1015.37 1015.39 1015.42 1015.44 1015.45 1015.41 1015.36 1015.34 1015.31 1014.98 1014.82
Thickness
5808 5812 5816 5808 5794 5802 5779 5777 5798 5786 5787 5799 5799 5792 5778 5779 5771 5750 5783 5785 5787 5791 5789 5786 5780 5780 5781 5780 5779 5779 5779 5778 5777 5778 5780 5780 5779 5778 5777 5776 5774 5773 5773 5771 5769 5766 5764 5761 5760
5815 5809 5811 5815 5796 5778 5765 5787 5782 5789 5793 5798 5793 5789 5783 5764 5779 5774 5778 5782 5787 5790 5789 5791 5781 5780 5780 5778 5778 5778 5779 5778 5776 5776 5777 5779 5778 5777 5776 5775 5774 5773 5772 5771 5770 5766 5764 5762 5761
5813 5813 5811 5807 5794 5771 5762 5781 5782 5789 5797 5795 5783 5791 5785 5769 5778 5777 5779 5780 5788 5789 5787 5788 5783 5781 5780 5778 5777 5777 5777 5776 5774 5774 5775 5777 5777 5776 5775 5774 5773 5773 5772 5771 5770 5766 5765 5763 5763
5810 5813 5820 5795 5775 5782 5782 5785 5790 5788 5792 5796 5793 5773 5780 5782 5783 5784 5783 5781 5784 5788 5790 5789 5785 5782 5780 5777 5775 5776 5776 5773 5773 5773 5773 5774 5774 5774 5774 5773 5772 5772 5770 5770 5769 5766 5764 5763 5763
5819 5821 5796 5783 5777 5786 5793 5794 5795 5784 5785 5789 5794 5772 5768 5775 5785 5785 5785 5786 5784 5787 5791 5790 5782 5781 5779 5777 5776 5774 5773 5771 5770 5770 5771 5771 5772 5773 5773 5772 5772 5771 5769 5769 5768 5766 5763 5764 5764
5811 5826 5792 5775 5777 5787 5793 5798 5797 5789 5788 5787 5783 5773 5766 5780 5781 5784 5787 5786 5787 5787 5786 5785 5780 5779 5777 5773 5772 5770 5769 5766 5766 5768 5770 5770 5768 5767 5767 5772 5771 5770 5769 5767 5766 5765 5764 5764 5766
5818 5812 5790 5788 5781 5783 5787 5802 5793 5789 5786 5783 5793 5771 5771 5776 5782 5785 5786 5787 5787 5787 5782 5780 5780 5776 5775 5772 5768 5767 5764 5761 5764 5765 5767 5770 5766 5763 5765 5771 5769 5769 5768 5767 5766 5764 5764 5765 5766
5826 5818 5793 5796 5790 5778 5795 5796 5800 5796 5782 5799 5799 5772 5767 5779 5784 5785 5787 5784 5782 5781 5784 5782 5779 5775 5770 5766 5762 5758 5757 5756 5759 5761 5765 5767 5763 5763 5766 5769 5769 5768 5767 5767 5765 5764 5764 5766 5767
5836 5809 5792 5795 5800 5789 5803 5790 5801 5806 5793 5794 5795 5793 5789 5786 5786 5784 5782 5783 5780 5780 5781 5777 5772 5764 5761 5758 5753 5748 5750 5752 5755 5758 5762 5764 5762 5762 5769 5768 5766 5766 5766 5766 5766 5765 5767 5769 5771
5831 5811 5801 5815 5813 5802 5803 5800 5795 5793 5789 5784 5784 5789 5788 5786 5784 5783 5781 5780 5779 5775 5774 5771 5763 5760 5756 5752 5748 5742 5741 5744 5744 5752 5757 5758 5759 5764 5771 5766 5766 5766 5766 5767 5767 5767 5769 5773 5780
5829 5809 5818 5815 5820 5817 5803 5799 5804 5794 5784 5790 5782 5784 5787 5787 5786 5784 5783 5785 5780 5777 5772 5768 5757 5754 5750 5745 5741 5738 5739 5736 5743 5747 5752 5753 5757 5765 5775 5772 5773 5772 5769 5776 5773 5774 5776 5776 5779
5815 5825 5824 5820 5819 5814 5805 5808 5797 5801 5796 5803 5797 5794 5790 5787 5787 5786 5785 5783 5781 5774 5769 5765 5759 5750 5745 5744 5740 5738 5737 5735 5738 5742 5749 5754 5759 5766 5772 5775 5773 5774 5776 5774 5773 5776 5776 5778 5780
5824 5822 5824 5824 5821 5817 5814 5803 5797 5794 5804 5805 5799 5793 5791 5791 5789 5790 5790 5787 5786 5779 5774 5766 5759 5751 5745 5744 5739 5738 5742 5737 5736 5741 5750 5757 5760 5763 5768 5768 5775 5776 5776 5776 5776 5776 5779 5780 5784
5833 5826 5819 5819 5815 5812 5804 5800 5804 5797 5807 5799 5795 5793 5795 5794 5793 5791 5789 5787 5785 5783 5776 5768 5760 5754 5750 5743 5742 5745 5747 5742 5738 5741 5750 5754 5759 5764 5771 5770 5777 5777 5777 5777 5777 5778 5779 5783 5787
5832 5812 5815 5814 5813 5805 5811 5789 5791 5800 5803 5795 5794 5795 5795 5795 5796 5792 5793 5790 5788 5786 5780 5772 5765 5756 5753 5748 5744 5747 5744 5743 5741 5745 5750 5752 5758 5764 5766 5772 5777 5779 5778 5776 5779 5781 5785 5786 5792
5821 5821 5798 5809 5813 5808 5805 5775 5792 5802 5799 5793 5795 5794 5792 5793 5794 5796 5796 5795 5791 5787 5779 5777 5774 5765 5759 5754 5748 5744 5744 5740 5744 5751 5752 5755 5760 5762 5766 5771 5780 5779 5780 5785 5787 5789 5787 5793 5797
5820 5803 5804 5797 5816 5807 5806 5785 5796 5804 5800 5794 5797 5795 5795 5794 5797 5798 5799 5797 5795 5788 5781 5778 5775 5770 5763 5756 5755 5752 5747 5744 5746 5751 5757 5763 5766 5769 5770 5777 5782 5780 5783 5784 5786 5788 5787 5792 5798
5810 5806 5806 5803 5808 5809 5803 5796 5802 5804 5803 5800 5801 5801 5799 5801 5800 5805 5805 5802 5797 5793 5786 5781 5777 5772 5768 5762 5757 5757 5756 5754 5756 5759 5765 5769 5772 5773 5774 5782 5780 5781 5787 5785 5788 5787 5791 5792 5795
5824 5820 5811 5814 5819 5809 5803 5801 5801 5808 5806 5802 5803 5804 5803 5804 5812 5813 5810 5805 5798 5795 5788 5783 5779 5775 5772 5769 5766 5758 5756 5758 5759 5765 5769 5771 5774 5776 5779 5782 5785 5784 5785 5784 5786 5787 5786 5788 5796
5827 5817 5812 5816 5819 5814 5806 5802 5809 5809 5809 5813 5811 5810 5809 5810 5814 5811 5810 5807 5800 5796 5793 5787 5783 5777 5778 5774 5771 5772 5768 5766 5769 5774 5774 5776 5779 5781 5781 5782 5782 5785 5787 5785 5786 5788 5788 5792 5791
5827 5824 5814 5812 5811 5811 5808 5795 5801 5812 5817 5821 5823 5825 5825 5821 5816 5814 5810 5809 5802 5797 5794 5790 5787 5784 5781 5784 5780 5777 5777 5777 5776 5778 5783 5786 5783 5784 5786 5785 5786 5787 5787 5790 5786 5785 5785 5788 5793
5827 5837 5828 5812 5804 5785 5817 5793 5801 5815 5813 5818 5825 5829 5831 5830 5825 5822 5816 5812 5811 5805 5801 5797 5793 5790 5788 5787 5786 5782 5780 5776 5780 5784 5789 5789 5788 5788 5790 5790 5788 5789 5790 5790 5789 5792 5790 5786 5786
5833 5842 5829 5819 5812 5809 5806 5814 5816 5822 5811 5819 5828 5836 5837 5838 5834 5828 5826 5822 5821 5814 5808 5804 5798 5795 5794 5790 5789 5786 5782 5788 5789 5791 5789 5791 5793 5793 5792 5791 5791 5790 5791 5792 5786 5786 5784 5784 5784
5845 5833 5827 5824 5821 5804 5821 5817 5816 5817 5824 5829 5839 5841 5843 5844 5842 5838 5836 5831 5824 5821 5815 5811 5804 5799 5798 5794 5792 5789 5787 5787 5790 5792 5794 5798 5801 5801 5797 5794 5792 5790 5789 5789 5786 5787 5783 5780 5778
5838 5827 5802 5797 5796 5814 5827 5810 5832 5847 5846 5845 5842 5846 5852 5851 5846 5841 5836 5832 5828 5822 5821 5819 5812 5806 5805 5803 5800 5796 5793 5791 5791 5792 5794 5795 5797 5797 5796 5796 5793 5792 5790 5788 5786 5785 5781 5779 5773
5831 5844 5808 5791 5802 5817 5818 5809 5831 5859 5861 5860 5858 5860 5859 5855 5857 5852 5846 5841 5835 5831 5826 5824 5820 5813 5812 5810 5806 5804 5801 5801 5802 5801 5800 5800 5800 5801 5801 5796 5794 5792 5791 5788 5787 5785 5781 5776 5771
5832 5817 5851 5831 5828 5825 5827 5835 5851 5855 5854 5856 5856 5856 5858 5858 5858 5855 5853 5850 5844 5839 5833 5830 5825 5821 5819 5817 5811 5807 5806 5804 5806 5804 5803 5804 5804 5803 5801 5799 5794 5791 5791 5789 5783 5783 5780 5776 5773
5841 5859 5823 5834 5798 5806 5818 5824 5830 5836 5843 5851 5853 5855 5863 5863 5859 5860 5858 5855 5851 5848 5843 5838 5834 5828 5826 5825 5821 5816 5812 5808 5807 5805 5801 5801 5802 5801 5796 5795 5795 5790 5788 5784 5779 5781 5779 5769 5770
5830 5830 5841 5849 5840 5826 5817 5830 5862 5851 5855 5853 5859 5866 5868 5864 5860 5859 5857 5856 5852 5850 5846 5839 5836 5832 5829 5828 5826 5822 5818 5815 5810 5808 5804 5801 5799 5796 5793 5790 5787 5784 5782 5780 5775 5771 5769 5766 5764
5860 5853 5853 5832 5823 5841 5853 5833 5875 5871 5869 5868 5869 5870 5868 5863 5860 5857 5854 5853 5850 5848 5845 5841 5840 5837 5834 5829 5823 5820 5817 5813 5812 5801 5796 5793 5791 5789 5787 5784 5780 5777 5774 5771 5768 5764 5762 5761 5758